CZ-4C DEB, 43263

Orbit data source: Space-Track

CZ-4C DEB, 43263 is space debris in SSO originally from a launch on Sat, 31 Mar 2018 UTC launched from the Taiyaun Space Center, China (TSC). Debris objects in space refer to the collection of defunct objects orbiting the Earth. Examples of debris include non-operational satellites, rocket bodies, and fragments generated from explosions, collisions, or faulty payload assembly.

Loading next visibility...
Identifier
43263, 2018-031E
Orbit
SSO
Country
Flag of CNCN / PRC
Related business
Manufacturer
Unknown
Mission
Spacecraft
Bus & Motor
Unknown
Mass
Unknown
Launch date (UTC)
2018-03-31 (8 years ago)
Launch vehicle
Unknown
Launch site
Taiyaun Space Center, China (TSC)
Object type
Payload
Rocket body
Debris
Shape & HBR
Unknown shape, 0.1 m
Radar Cross Section
Small (<0.1 m²)

Expand to show TLE details & history
Last TLE update: 1 day ago

TLE from 1 day ago
0 CZ-4C DEB
1 43263U 18031E   25296.26156126  .00004148  00000-0  55862-3 0  9990
2 43263  97.6953 305.0092 0040459  34.9145 325.4708 14.79136493406327
Epoch: 2025-10-23T06:16Z
TLE epoch observation values (Epoch: 2025-10-23T06:16:38.892Z)
Latitude
-0.00008°
Longitude
178.92381°
Altitude
611.744 km
Speed
7.566 km/s
True Right ascension
20h 20m 02s
True Declination
0° 00' 00"
Sunlit
Object was in daylight at epoch
Visualization orbit readout
Latitude
Unknown
Longitude
Unknown
Altitude
Unknown
Speed
Unknown
Apparent Right ascension
Unknown
Apparent Declination
Unknown
Sunlit
N/A
Visualization observer readout
Local Sidereal Time
01:29:24
Azimuth
Unknown
Elevation
Unknown
Doppler factor
Unknown
Orbital elements
Apogee altitude
657.435 km
Perigee altitude
600.734 km
Semi-major axis
7,007.221 km
Eccentricity
0.00405
Inclination
97.6953°
RAAN
305.0092°
Arg. of periapsis
34.9145°
True anomaly
325.20691°
Mean anomaly
325.4708°
Eccentric anomaly
325.33896°
Mean motion
3.70019 °/min
Orbital period
97.29 mins
BSTAR
0.00055862
Loading maneuver chart data...
Computing Atmospheric mass density...
Loading historical data...
Loading historical data...
Loading historical data...
Loading historical data...
Loading historical data...
Loading historical data...
Loading historical data...

Documentation

Showing up to 5 results
|